Home > Weather > Davis > Past weeks

Flag for USA Past Weather in Davis, California, USA — Yesterday and Last 2 Weeks

Now
65 °F

Clear.


Feels Like: 65 °F
Forecast: 60 / 102 °F
Wind: 14 mph from South

Location: Sacramento International Airport

Current Time: Jul 25, 2016 at 5:00:21 AM

Latest Report: Jul 25, 2016 at 3:53 AM


Visibility: 10 mi

Pressure: 29.82 "Hg

Humidity: 59%

Dew Point: 50 °F

Location of DavisLocation

Past Weather in Davis — Graph

°F

Davis Temperature Yesterday

Maximum temperature yesterday: 102 °F (at 4:53 PM)
Minimum temperature yesterday: 65 °F (at 5:53 AM)
Average temperature yesterday: 83 °F

High & Low Weather Summary for the Past Weeks

 TemperatureHumidityPressure
High102 °F (Jul 24, 4:53 PM)87% (Jul 16, 5:53 AM)30.09 "Hg (Jul 16, 5:53 AM)
Low55 °F (Jul 10, 5:53 AM)12% (Jul 23, 4:53 PM)29.74 "Hg (Jul 16, 6:53 PM)
Average75 °F49%29.90 "Hg
* Reported Jul 10 3:53 AM — Jul 25 3:53 AM, Davis, Weather by CustomWeather, © 2016

Note: Actual official high and low records may vary slightly from our data, if they occured in-between our weather recording intervals... More about our weather records

Advertising

Davis Weather History for the Previous 24 Hours

Scroll right to see more
 ConditionsComfort  
Time TempWeatherWind HumidityBarometerVisibility
3:53 AM
Mon, Jul 25
65 °FClear.14 mph59%29.82 "Hg10 mi
2:53 AM67 °FClear.13 mph55%29.82 "Hg10 mi
1:53 AM70 °FClear.14 mph47%29.81 "Hg10 mi
12:53 AM71 °FClear.10 mph45%29.81 "Hg10 mi
11:53 PM
Sun, Jul 24
72 °FClear.12 mph49%29.80 "Hg10 mi
10:53 PM74 °FClear.13 mph50%29.79 "Hg10 mi
9:53 PM80 °FClear.12 mph45%29.78 "Hg10 mi
8:53 PM87 °FSunny.9 mph37%29.76 "Hg10 mi
7:53 PM93 °FSunny.9 mph26%29.75 "Hg10 mi
6:53 PM99 °FSunny.13 mph21%29.75 "Hg10 mi
5:53 PM102 °FSunny.13 mph15%29.75 "Hg10 mi
4:53 PM102 °FSunny.12 mph14%29.76 "Hg10 mi
3:53 PM101 °FSunny.12 mph18%29.77 "Hg10 mi
2:53 PM100 °FSunny.12 mph20%29.79 "Hg10 mi
1:53 PM97 °FSunny.5 mph23%29.80 "Hg10 mi
12:53 PM93 °FSunny.8 mph29%29.80 "Hg10 mi
11:53 AM89 °FSunny.8 mph36%29.81 "Hg10 mi
10:53 AM85 °FSunny.9 mph37%29.82 "Hg10 mi
9:53 AM79 °FSunny.6 mph47%29.82 "Hg10 mi
8:53 AM75 °FSunny.6 mph50%29.82 "Hg10 mi
7:53 AM71 °FSunny.6 mph55%29.81 "Hg10 mi
6:53 AM65 °FClear.3 mph68%29.80 "Hg10 mi
5:53 AM65 °FClear.8 mph68%29.78 "Hg10 mi
Weather by CustomWeather, © 2016

See weather overviewHow to use our weather pages